OBJECT K (43189 NORAD) Tracking and Keplerian Element Data

This shows tracking and keplerian element data for the satellite.

Feedback or suggestion? Click here.




ElementValue
Catalog43189
NameOBJECT K
Epoch Orbit2788
Epoch Day228.46789893
Epoch Year2018
RAAN136.1517
Inclination97.7194
Eccentricity0.0010152
Argument of Perigee315.7622
Mean Anonmoly44.2787
Mean Motion14.96481471
Decay Rate-5.7E-07
L11 43189U 18014K 18228.46789893 -.00000057 00000-0 10506-6 0 9995
L22 43189 97.7194 136.1517 0010152 315.7622 44.2787 14.96481471 27885

Live tracking and technical data element details for OBJECT K (NORAD 43189). OBJECT K can be tracked NOW for your location showing map with azimuth and elevation plus other details from your city location.

Track the satellite on the map from your city or location and see movement details for azimuth, elevation, latitude, longitude, range, height, and movement on the map or in text.







IsCatalogInMostPopularTable: catalog: 43189, numindb: 75
Update: records affected: 1



GetName: 43189 OBJECT K

Hit Count: updated at: Fri, 17 Aug 2018 13:19:58 GMT